Regional Weather Roundup
Issued by NWS

Home | Current Version | Previous Version | Text Only | Print | Product List | Glossary On
Versions: 1 2 3 4 5 6 7 8 9 10 11 12 13 14 15 16 17 18 19 20 21 22 23 24 25 26 27 28 29 30 31 32 33 34 35 36 37 38 39 40 41 42 43 44 45 46 47 48 49 50
000
ASUS45 KSLC 070010
RWRUT

UTAH REGIONAL WEATHER ROUNDUP
NATIONAL WEATHER SERVICE SALT LAKE CITY UT
600 PM MDT WED MAY 06 2015

UTZ001>011-023>025-070100-

NORTHERN UTAH

CITY           SKY/WX    TMP DP  RH WIND       PRES   REMARKS
HILL AFB       CLOUDY    53  48  85 N9        29.74F
LOGAN          LGT RAIN  50  46  86 SE7       29.77S
OGDEN          CLOUDY    54  45  71 N12       29.73F
PROVO AIRPORT  PTSUNNY   61  43  51 CALM      29.73R
SALT LAKE CITY CLOUDY    58  45  62 N6        29.71F
VERNAL         CLOUDY    55  44  66 S7        29.77S
WENDOVER       CLOUDY    54  43  66 W15       29.76R
HEBER CITY     PTSUNNY   54  43  66 E5        29.75R
WEST JORDAN    CLOUDY    61  45  55 SE3       29.73S

$$

UTZ012>022-026-027-070100-

SOUTHERN/CENTRAL UTAH

CITY           SKY/WX    TMP DP  RH WIND       PRES   REMARKS
BRYCE CANYON   MOSUNNY   55  27  34 SW20      29.84F
CEDAR CITY     SUNNY     64  30  27 SW17G29   29.74F
DELTA          CLOUDY    53  46  75 SE9       29.74R
HANKSVILLE     MOSUNNY   66  39  37 W6        29.72F
MILFORD        PTSUNNY   59  38  45 W25G38    29.72R
MOAB/CYNLANDS  PTSUNNY   60  47  61 NW7       29.72R
PRICE          CLOUDY    54  42  64 SE18      29.77R
ST GEORGE      MOCLDY    79  30  17 SW20G25   29.65F
KANAB          SUNNY     70  27  19 S15G21    29.77F

$$

REGIONAL REPORTS     COLORADO/ARIZONA

CITY           SKY/WX    TMP DP  RH WIND       PRES   REMARKS
CRAIG, CO      CLOUDY    51  43  74 N12       29.81R
GRAND JUNCTION CLOUDY    59  42  53 CALM      29.76F
RIFLE          LGT RAIN  50  44  80 W13G22    29.83R
MONTROSE       PTSUNNY   61  43  51 NW16G22   29.82F
CORTEZ         PTSUNNY   63  42  46 SE9       29.82S
PAGE, AZ       MOSUNNY   75  27  17 SW9G21    29.69F
GRAND CANYON   MOSUNNY   61  23  23 SW21      29.86F
KINGMAN        SUNNY     76  27  16 SW24G32   29.73F
FLAGSTAFF      SUNNY     57  19  22 SW21G29   29.91S

$$

REGIONAL REPORTS    NEVADA/IDAHO/WYOMING

CITY           SKY/WX    TMP DP  RH WIND       PRES   REMARKS
LAS VEGAS, NV  MOSUNNY   84  22  10 S20G31    29.56S
ELY            CLOUDY    44  41  89 VRB5      29.82F
ELKO           CLOUDY    63  22  20 N17G26    29.69S
POCATELLO, ID  LGT RAIN  57  39  51 SW13G35   29.75R
BURLEY         LGT RAIN  53  35  50 SW7       29.75R
EVANSTON, WY   LGT RAIN  44  42  93 SW22      29.79R
ROCK SPRINGS   CLOUDY    52  41  66 E18       29.78R
KEMMERER       CLOUDY    54  34  47 W17G23    29.77R

$$


USA.gov is the U.S. government's official web portal to all federal, state and local government web resources and services.